SP4FDH-13 Weather Reports


time (UTC)temp
C
wind
direction
speed
KPH
gust
KPH
rain 1hr
cm
rain 24hr
cm
rain mn
cm
humidity
%
barometer
mb
20260506145239 25 0.0 0.0 0.00 0.00 0.00 67 1003.0
20260506144303 25 0.0 0.0 0.00 0.00 0.00 65 1002.9
20260506143327 25 0.0 0.0 0.00 0.00 0.00 63 1002.9
20260506142351 25 0.0 0.0 0.00 0.00 0.00 62 1002.8
20260506141415 25 0.0 0.0 0.00 0.00 0.00 62 1002.8
20260506140439 25 0.0 0.0 0.00 0.00 0.00 63 1002.8
20260506135503 25 0.0 0.0 0.00 0.00 0.00 61 1002.8
20260506134527 25 0.0 0.0 0.00 0.00 0.00 61 1002.7
20260506133550 25 0.0 0.0 0.00 0.00 0.00 64 1002.8
20260506132613 25 0.0 0.0 0.00 0.00 0.00 62 1003.0
20260506131638 25 0.0 0.0 0.00 0.00 0.00 60 1002.9
20260506130702 25 0.0 0.0 0.00 0.00 0.00 60 1002.9
20260506125726 25 0.0 0.0 0.00 0.00 0.00 59 1003.0
20260506124748 25 0.0 0.0 0.00 0.00 0.00 63 1003.2
20260506123810 25 0.0 0.0 0.00 0.00 0.00 68 1003.3
20260506122834 23 0.0 0.0 0.00 0.00 0.00 69 1003.5
20260506121858 24 0.0 0.0 0.00 0.00 0.00 68 1003.5
20260506120921 24 0.0 0.0 0.00 0.00 0.00 69 1003.6
20260506115945 23 0.0 0.0 0.00 0.00 0.00 70 1003.5
20260506115007 23 0.0 0.0 0.00 0.00 0.00 71 1003.6
20260506114031 23 0.0 0.0 0.00 0.00 0.00 70 1003.6
20260506113055 23 0.0 0.0 0.00 0.00 0.00 70 1003.7
20260506112118 23 0.0 0.0 0.00 0.00 0.00 71 1003.6
20260506111142 23 0.0 0.0 0.00 0.00 0.00 72 1003.7
20260506110206 23 0.0 0.0 0.00 0.00 0.00 72 1003.7
20260506105230 23 0.0 0.0 0.00 0.00 0.00 73 1004.0
20260506104253 23 0.0 0.0 0.00 0.00 0.00 73 1004.2
20260506103318 23 0.0 0.0 0.00 0.00 0.00 69 1004.1
20260506102344 23 0.0 0.0 0.00 0.00 0.00 70 1004.2
20260506101409 23 0.0 0.0 0.00 0.00 0.00 68 1004.3
20260506100434 23 0.0 0.0 0.00 0.00 0.00 72 1004.3
20260506095456 22 0.0 0.0 0.00 0.00 0.00 74 1004.3
20260506094519 22 0.0 0.0 0.00 0.00 0.00 74 1004.3
20260506093542 22 0.0 0.0 0.00 0.00 0.00 77 1004.3
20260506092604 21 0.0 0.0 0.00 0.00 0.00 82 1004.2
20260506091628 21 0.0 0.0 0.00 0.00 0.00 81 1004.6
20260506090649 20 0.0 0.0 0.00 0.00 0.00 87 1004.9
20260506085713 20 0.0 0.0 0.00 0.00 0.00 84 1004.8
20260506084735 20 0.0 0.0 0.00 0.00 0.00 89 1004.9
20260506083758 20 0.0 0.0 0.00 0.00 0.00 89 1005.0
20260506082821 20 0.0 0.0 0.00 0.00 0.00 90 1005.0
20260506081846 20 0.0 0.0 0.00 0.00 0.00 88 1005.2
20260506080909 20 0.0 0.0 0.00 0.00 0.00 89 1005.2
20260506073043 18 0.0 0.0 0.00 0.00 0.00 93 1005.3
20260506071129 18 0.0 0.0 0.00 0.00 0.00 10 1005.5
20260506070151 17 0.0 0.0 0.00 0.00 0.00 10 1005.8
20260506062332 19 0.0 0.0 0.00 0.00 0.00 89 1005.8
20260506060417 17 0.0 0.0 0.00 0.00 0.00 98 1006.1
20260506050633 15 0.0 0.0 0.00 0.00 0.00 10 1006.7
20260506044717 14 0.0 0.0 0.00 0.00 0.00 10 1006.9
20260506043740 13 0.0 0.0 0.00 0.00 0.00 10 1007.2
20260506042803 13 0.0 0.0 0.00 0.00 0.00 10 1007.4
20260506041826 13 0.0 0.0 0.00 0.00 0.00 10 1007.4
20260506040850 13 0.0 0.0 0.00 0.00 0.00 10 1007.5
20260506035914 12 0.0 0.0 0.00 0.00 0.00 10 1007.6
20260506034937 12 0.0 0.0 0.00 0.00 0.00 10 1007.7
20260506034001 12 0.0 0.0 0.00 0.00 0.00 10 1007.7
20260506033025 12 0.0 0.0 0.00 0.00 0.00 10 1007.9
20260506032048 12 0.0 0.0 0.00 0.00 0.00 10 1007.8
20260506031111 12 0.0 0.0 0.00 0.00 0.00 10 1007.7
20260506030135 12 0.0 0.0 0.00 0.00 0.00 10 1007.7
20260506025159 12 0.0 0.0 0.00 0.00 0.00 10 1007.6
20260506024222 12 0.0 0.0 0.00 0.00 0.00 10 1007.7
20260506023246 12 0.0 0.0 0.00 0.00 0.00 10 1007.8
20260506022309 12 0.0 0.0 0.00 0.00 0.00 10 1007.6
20260506021333 12 0.0 0.0 0.00 0.00 0.00 10 1007.6
20260506020356 12 0.0 0.0 0.00 0.00 0.00 10 1007.6
20260506015420 12 0.0 0.0 0.00 0.00 0.00 10 1007.8
20260506014444 12 0.0 0.0 0.00 0.00 0.00 10 1007.7
20260506013507 12 0.0 0.0 0.00 0.00 0.00 10 1007.7
20260506012530 12 0.0 0.0 0.00 0.00 0.00 10 1007.6
20260506011554 12 0.0 0.0 0.00 0.00 0.00 10 1007.4
20260506010617 12 0.0 0.0 0.00 0.00 0.00 10 1007.5
20260506005641 12 0.0 0.0 0.00 0.00 0.00 10 1007.4
20260506004704 12 0.0 0.0 0.00 0.00 0.00 10 1007.4
20260506003728 12 0.0 0.0 0.00 0.00 0.00 10 1007.3
20260506002752 13 0.0 0.0 0.00 0.00 0.00 10 1007.4
20260506001816 13 0.0 0.0 0.00 0.00 0.00 10 1007.3
20260506000840 13 0.0 0.0 0.00 0.00 0.00 10 1007.2
20260505235903 13 0.0 0.0 0.00 0.00 0.00 10 1007.4
20260505234928 13 0.0 0.0 0.00 0.00 0.00 10 1007.5
20260505233951 13 0.0 0.0 0.00 0.00 0.00 10 1007.4
20260505233015 13 0.0 0.0 0.00 0.00 0.00 10 1007.4
20260505232040 13 0.0 0.0 0.00 0.00 0.00 10 1007.5
20260505231103 13 0.0 0.0 0.00 0.00 0.00 10 1007.6
20260505230128 13 0.0 0.0 0.00 0.00 0.00 10 1007.6
20260505225152 13 0.0 0.0 0.00 0.00 0.00 10 1007.6
20260505224216 13 0.0 0.0 0.00 0.00 0.00 10 1007.7
20260505223240 13 0.0 0.0 0.00 0.00 0.00 10 1007.5
20260505222306 13 0.0 0.0 0.00 0.00 0.00 10 1007.4
20260505221328 14 0.0 0.0 0.00 0.00 0.00 10 1007.4
20260505220352 14 0.0 0.0 0.00 0.00 0.00 10 1007.3
20260505215416 15 0.0 0.0 0.00 0.00 0.00 10 1007.4
20260505214440 15 0.0 0.0 0.00 0.00 0.00 10 1007.4
20260505213504 15 0.0 0.0 0.00 0.00 0.00 10 1007.4
20260505212528 15 0.0 0.0 0.00 0.00 0.00 98 1007.4
20260505211552 15 0.0 0.0 0.00 0.00 0.00 97 1007.4
20260505210617 15 0.0 0.0 0.00 0.00 0.00 97 1007.4
20260505205641 15 0.0 0.0 0.00 0.00 0.00 95 1007.4
20260505204705 15 0.0 0.0 0.00 0.00 0.00 95 1007.3
20260505203730 16 0.0 0.0 0.00 0.00 0.00 93 1007.5
20260505202754 16 0.0 0.0 0.00 0.00 0.00 94 1007.6
20260505201818 16 0.0 0.0 0.00 0.00 0.00 93 1007.7
20260505200842 16 0.0 0.0 0.00 0.00 0.00 94 1007.7
20260505195907 16 0.0 0.0 0.00 0.00 0.00 92 1007.6
20260505194931 16 0.0 0.0 0.00 0.00 0.00 94 1007.5
20260505193957 16 0.0 0.0 0.00 0.00 0.00 94 1007.5
20260505193017 16 0.0 0.0 0.00 0.00 0.00 94 1007.4
20260505192042 17 0.0 0.0 0.00 0.00 0.00 92 1007.5
20260505191107 17 0.0 0.0 0.00 0.00 0.00 95 1007.3
20260505190132 17 0.0 0.0 0.00 0.00 0.00 10 1007.2
20260505185156 18 0.0 0.0 0.00 0.00 0.00 10 1007.1
20260505184221 18 0.0 0.0 0.00 0.00 0.00 10 1007.0
20260505183245 18 0.0 0.0 0.00 0.00 0.00 10 1006.8
20260505182310 19 0.0 0.0 0.00 0.00 0.00 10 1006.8
20260505181334 19 0.0 0.0 0.00 0.00 0.00 10 1006.7
20260505180358 19 0.0 0.0 0.00 0.00 0.00 10 1006.6
20260505175423 20 0.0 0.0 0.00 0.00 0.00 10 1006.5
20260505174448 20 0.0 0.0 0.00 0.00 0.00 10 1006.4
20260505173513 20 0.0 0.0 0.00 0.00 0.00 10 1006.3
20260505172538 20 0.0 0.0 0.00 0.00 0.00 10 1006.2
20260505171602 20 0.0 0.0 0.00 0.00 0.00 10 1006.1
20260505170627 21 0.0 0.0 0.00 0.00 0.00 10 1006.2
20260505165652 21 0.0 0.0 0.00 0.00 0.00 10 1006.1
20260505164718 22 0.0 0.0 0.00 0.00 0.00 98 1005.9
20260505163743 22 0.0 0.0 0.00 0.00 0.00 99 1005.8
20260505162808 23 0.0 0.0 0.00 0.00 0.00 10 1006.0
20260505161832 23 0.0 0.0 0.00 0.00 0.00 10 1006.1
20260505160857 23 0.0 0.0 0.00 0.00 0.00 10 1006.0
20260505153035 22 0.0 0.0 0.00 0.00 0.00 10 1005.9
20260505152100 22 0.0 0.0 0.00 0.00 0.00 10 1006.0
20260505151125 22 0.0 0.0 0.00 0.00 0.00 10 1006.0